铱星星座 156星 (IRIDIUM 156)

导读

IRIDIUM 156铱星156号卫星,是美国于2018年7月25日发射的通信卫星,隶属于铱星系统。该系统由近地轨道卫星组网,提供全球语音和数据通信服务。IRIDIUM 156承担着接替老旧卫星、保障全球无缝覆盖通信的任务,为海事、航空等领域客户提供稳定的全球通信连接。

Basic Information
目录编号:
43576
目录名称:
IRIDIUM 156
国际标识:
2018-061H
轨道中心:
EARTH
卫星名称:
铱星星座 156星
卫星全名:
铱星星座 156星 (IRIDIUM 156)
卫星状态:
在轨 (已飞行2964 天)
发射日期:
2018-07-25 UTC
国别 :
美国 (US)
星等 :
--
Orbit Information
数据来源 国际轨道数据
星历时间: 2026-09-05T18:06:13+0800
6小时前
查看轨道信息
半长轴: 7155.81km
偏心率: 0.0002206
轨道倾角: 86.399°
近地点辐角 89.751°
升交点赤经 23.167°
平近点角 270.394°
近地点: 776.094km
远地点: 779.252km
周期: 100.403分钟
每日圈数: 14.342161
Detailed Information
平衡模式:
三轴稳定
覆盖范围:
全球
运营商:
铱星通信公司
运营商所在国:
美国
制造商(研发单位):
阿莱尼亚宇航公司
制造商所在国:
意大利
使用方式:
暂无
Satellite Introduction
铱星(Iridium)是由共66个运作中的通信卫星组成的卫星通信系统。这个系统原本规划77个通信卫星,所以用原子序数为77的铱元素来命名。铱卫星允许人们使用手持型电子设备进行全球性的语音及数据通讯。该卫星仍在工作。
2D Orbit Map
3D Orbit Map
Orbit Altitude Analysis Chart
Orbit Inclination Analysis Chart
Orbit Comprehensive Analysis Chart
View Comprehensive Chart
Conjunction Data List
Event ID Objects TCA Miss Dist (km) Collision Risk Probability Collision Risk Index (CRI) Action
CDM_260907-163403-411704-357623
2026-09-07T
16:34:39+0000
2.008 km
极远距离
2.816422E-6 低风险 0.44
CDM_260906-045004-357604-572124
2026-09-06T
04:50:47+0000
2.613 km
极远距离
1.627912E-6 低风险 0.39
CDM_260906-040004-357604-572124
2026-09-06T
04:00:33+0000
2.781 km
极远距离
1.477514E-6 低风险 0.38